AKDT,Max TemperatureF,Mean TemperatureF,Min TemperatureF,Max Dew PointF,MeanDew PointF,Min DewpointF,Max Humidity, Mean Humidity, Min Humidity, Max Sea Level PressureIn, Mean Sea Level PressureIn, Min Sea Level PressureIn, Max VisibilityMiles, Mean VisibilityMiles, Min VisibilityMiles, Max Wind SpeedMPH, Mean Wind SpeedMPH, Max Gust SpeedMPH,PrecipitationIn, CloudCover, Events, WindDirDegrees
2013-3-1,3,-6,-16,0,-10,-24,100,76,53,30.01,29.79,29.60,10,9,2,6,2,,0.00,5,,36
2013-3-2,6,-2,-11,-2,-8,-26,100,70,30,30.28,30.15,30.01,10,9,1,8,4,,0.00,3,,49
2013-3-3,3,-8,-18,-2,-13,-26,100,78,53,30.51,30.43,30.29,10,9,2,5,3,,0.00,0,,44
2013-3-4,3,-11,-25,-6,-17,-29,100,76,48,30.54,30.50,30.42,10,8,2,4,0,,0.00,1,,30
2013-3-5,3,-10,-23,-8,-17,-27,100,69,51,30.41,30.26,30.11,10,10,5,7,1,,0.00,0,,50
2013-3-6,6,-5,-16,-2,-14,-27,100,67,40,30.10,30.01,29.95,10,9,2,7,3,,0.00,0,,48
2013-3-7,12,-5,-22,0,-11,-29,100,69,46,29.95,29.81,29.66,10,9,2,16,4,23,0.00,1,,54
2013-3-8,19,14,8,14,3,-2,86,63,42,29.69,29.68,29.66,10,10,10,12,8,16,0.00,5,,54
2013-3-9,21,10,-2,14,5,-8,100,79,58,29.85,29.77,29.69,10,9,3,7,1,,0.00,1,,229
2013-3-10,24,15,6,18,13,5,100,77,54,30.26,30.03,29.86,10,10,6,10,6,17,0.00,1,,253
2013-3-11,15,2,-13,9,-4,-20,100,69,25,30.61,30.48,30.24,10,10,3,6,3,,0.00,1,,37
2013-3-12,14,-6,-25,1,-15,-29,100,64,40,30.62,30.51,30.38,10,8,2,6,0,,0.00,0,,26
2013-3-13,1,-8,-18,-6,-21,-29,100,53,24,30.51,30.43,30.35,10,10,10,18,6,31,0.00,0,,55
2013-3-14,5,-4,-14,-20,-25,-29,54,39,15,30.53,30.49,30.42,10,10,10,17,11,23,0.00,0,,57
2013-3-15,10,0,-9,-15,-22,-27,43,35,17,30.43,30.29,30.16,10,10,10,15,10,21,0.00,0,,60
2013-3-16,17,4,-9,-8,-18,-27,56,40,24,30.24,30.21,30.19,10,10,10,10,7,,0.00,0,,52
2013-3-17,17,-2,-20,-8,-17,-29,100,52,19,30.27,30.22,30.09,10,9,2,5,1,,0.00,1,,312
2013-3-18,17,-3,-23,-6,-13,-27,100,56,22,30.10,30.03,30.01,10,9,2,9,2,,0.00,1,,54
2013-3-19,8,-6,-20,-15,-20,-29,92,49,17,30.20,30.13,30.00,10,10,2,8,3,,0.00,1,,53
2013-3-20,10,-8,-27,1,-13,-27,100,61,31,30.00,29.90,29.85,10,10,3,6,1,,0.00,1,,252
2013-3-21,17,-3,-23,12,-9,-29,100,70,29,30.05,30.01,29.91,10,8,2,6,1,,0.00,5,,162
2013-3-22,24,8,-7,7,0,-6,92,61,31,30.01,29.87,29.70,10,10,10,9,4,16,0.00,5,,74
2013-3-23,19,2,-18,7,-5,-27,100,64,35,30.05,29.84,29.65,10,8,1,20,9,30,0.00,5,Snow,269
2013-3-24,7,-12,-32,-2,-15,-29,100,49,26,30.07,29.97,29.80,10,9,2,9,3,,0.00,3,,22
2013-3-25,12,0,-13,9,4,-4,100,85,72,29.79,29.60,29.51,10,3,0,13,4,16,0.00,8,,283
2013-3-26,8,2,-5,5,-5,-11,92,73,53,30.06,29.82,29.55,10,6,0,14,10,22,0.00,6,,244
2013-3-27,5,-2,-9,0,-13,-20,100,62,43,30.15,30.12,30.07,10,8,2,10,5,16,0.00,3,,232
2013-3-28,8,-2,-13,-2,-11,-26,100,64,38,30.12,30.08,30.03,10,9,3,8,2,,0.00,4,,40
2013-3-29,19,4,-11,-2,-12,-20,92,53,33,30.04,30.00,29.96,10,9,3,6,3,,0.00,1,,15
2013-3-30,26,8,-11,9,-1,-17,100,67,28,30.17,30.10,29.98,10,9,2,4,0,,0.00,0,,251
2013-3-31,33,12,-9,18,3,-20,100,64,41,30.21,30.18,30.13,10,9,2,5,1,,0.00,3,,38